Year,Month,Day,Hour,Minute,Value (Times are PST for temperature in C)
2005,08,18,00,00,15.30
2005,08,18,00,01,15.30
2005,08,18,00,02,15.30
2005,08,18,00,03,15.30
2005,08,18,00,04,15.30
2005,08,18,00,05,15.30
2005,08,18,00,06,15.30
2005,08,18,00,07,15.30
2005,08,18,00,08,15.30
2005,08,18,00,09,15.30
2005,08,18,00,10,15.30
2005,08,18,00,11,15.30
2005,08,18,00,12,15.30
2005,08,18,00,14,15.30
2005,08,18,00,15,15.30
2005,08,18,00,20,15.30
2005,08,18,00,22,15.30
2005,08,18,00,24,15.30
2005,08,18,00,26,15.30
2005,08,18,00,27,15.30
2005,08,18,00,30,15.30
2005,08,18,00,33,15.30
2005,08,18,00,36,15.30
2005,08,18,00,39,15.30
2005,08,18,00,40,15.30
2005,08,18,00,41,15.30
2005,08,18,00,44,15.30
2005,08,18,00,46,15.30
2005,08,18,00,50,15.20
2005,08,18,00,51,15.20
2005,08,18,00,54,15.20
2005,08,18,00,55,15.10
2005,08,18,00,58,15.00
2005,08,18,01,01,15.00
2005,08,18,01,02,15.00
2005,08,18,01,05,15.00
2005,08,18,01,07,15.00
2005,08,18,01,08,15.00
2005,08,18,01,09,15.00
2005,08,18,01,11,14.90
2005,08,18,01,12,14.90
2005,08,18,01,14,14.90
2005,08,18,01,15,14.90
2005,08,18,01,16,14.90
2005,08,18,01,17,14.90
2005,08,18,01,18,14.80
2005,08,18,01,19,14.80
2005,08,18,01,20,14.80
2005,08,18,01,21,14.80
2005,08,18,01,22,14.80
2005,08,18,01,23,14.80
2005,08,18,01,24,14.80
2005,08,18,01,25,14.80
2005,08,18,01,26,14.80
2005,08,18,01,29,14.70
2005,08,18,01,32,14.70
2005,08,18,01,34,14.70
2005,08,18,01,36,14.70
2005,08,18,01,37,14.60
2005,08,18,01,38,14.70
2005,08,18,01,39,14.70
2005,08,18,01,40,14.70
2005,08,18,01,41,14.70
2005,08,18,01,42,14.70
2005,08,18,01,43,14.70
2005,08,18,01,47,14.80
2005,08,18,01,50,14.80
2005,08,18,01,52,14.80
2005,08,18,01,54,14.80
2005,08,18,01,56,14.80
2005,08,18,01,58,14.80
2005,08,18,01,59,14.80
2005,08,18,02,02,14.80
2005,08,18,02,04,14.80
2005,08,18,02,06,14.90
2005,08,18,02,07,15.00
2005,08,18,02,08,14.90
2005,08,18,02,09,14.90
2005,08,18,02,10,14.90
2005,08,18,02,12,15.00
2005,08,18,02,15,14.90
2005,08,18,02,17,14.90
2005,08,18,02,22,14.80
2005,08,18,02,25,14.90
2005,08,18,02,30,14.70
2005,08,18,02,32,14.60
2005,08,18,02,34,14.50
2005,08,18,02,35,14.40
2005,08,18,02,37,14.30
2005,08,18,02,38,14.20
2005,08,18,02,39,14.20
2005,08,18,02,40,14.20
2005,08,18,02,41,14.10
2005,08,18,02,42,14.10
2005,08,18,02,43,14.10
2005,08,18,02,44,14.10
2005,08,18,02,45,14.00
2005,08,18,02,46,14.00
2005,08,18,02,47,14.00
2005,08,18,02,48,14.00
2005,08,18,02,49,14.00
2005,08,18,02,50,14.00
2005,08,18,02,51,14.00
2005,08,18,02,52,13.90
2005,08,18,02,53,13.90
2005,08,18,02,54,13.90
2005,08,18,02,55,13.90
2005,08,18,02,56,13.90
2005,08,18,02,57,13.90
2005,08,18,02,58,13.90
2005,08,18,02,59,13.90
2005,08,18,03,00,13.90
2005,08,18,03,01,13.90
2005,08,18,03,02,14.00
2005,08,18,03,03,14.00
2005,08,18,03,04,13.90
2005,08,18,03,05,13.70
2005,08,18,03,06,13.70
2005,08,18,03,07,13.60
2005,08,18,03,08,13.70
2005,08,18,03,09,13.70
2005,08,18,03,10,13.70
2005,08,18,03,11,13.70
2005,08,18,03,12,13.50
2005,08,18,03,13,13.40
2005,08,18,03,14,13.20
2005,08,18,03,15,13.20
2005,08,18,03,16,13.10
2005,08,18,03,17,13.10
2005,08,18,03,18,13.10
2005,08,18,03,19,13.10
2005,08,18,03,20,13.20
2005,08,18,03,21,13.20
2005,08,18,03,22,13.20
2005,08,18,03,23,13.20
2005,08,18,03,24,13.20
2005,08,18,03,25,13.20
2005,08,18,03,26,13.20
2005,08,18,03,27,13.20
2005,08,18,03,28,13.20
2005,08,18,03,29,13.20
2005,08,18,03,30,13.20
2005,08,18,03,31,13.20
2005,08,18,03,32,13.20
2005,08,18,03,33,13.10
2005,08,18,03,34,13.00
2005,08,18,03,35,12.90
2005,08,18,03,36,12.90
2005,08,18,03,37,12.80
2005,08,18,03,38,12.80
2005,08,18,03,39,12.70
2005,08,18,03,40,12.60
2005,08,18,03,41,12.50
2005,08,18,03,42,12.50
2005,08,18,03,43,12.30
2005,08,18,03,44,12.20
2005,08,18,03,45,12.10
2005,08,18,03,46,12.10
2005,08,18,03,47,12.00
2005,08,18,03,48,11.90
2005,08,18,03,49,11.80
2005,08,18,03,50,11.70
2005,08,18,03,51,11.70
2005,08,18,03,52,11.60
2005,08,18,03,53,11.60
2005,08,18,03,54,11.60
2005,08,18,03,55,11.60
2005,08,18,03,56,11.50
2005,08,18,03,57,11.40
2005,08,18,03,58,11.40
2005,08,18,03,59,11.40
2005,08,18,04,00,11.40
2005,08,18,04,01,11.40
2005,08,18,04,02,11.40
2005,08,18,04,03,11.40
2005,08,18,04,04,11.40
2005,08,18,04,05,11.50
2005,08,18,04,06,11.50
2005,08,18,04,07,11.60
2005,08,18,04,08,11.60
2005,08,18,04,09,11.60
2005,08,18,04,10,11.60
2005,08,18,04,11,11.60
2005,08,18,04,12,11.60
2005,08,18,04,13,11.60
2005,08,18,04,14,11.60
2005,08,18,04,15,11.60
2005,08,18,04,16,11.60
2005,08,18,04,17,11.60
2005,08,18,04,18,11.70
2005,08,18,04,19,11.70
2005,08,18,04,20,11.70
2005,08,18,04,21,11.70
2005,08,18,04,22,11.70
2005,08,18,04,23,11.80
2005,08,18,04,24,11.80
2005,08,18,04,25,11.80
2005,08,18,04,26,11.80
2005,08,18,04,27,11.80
2005,08,18,04,28,11.80
2005,08,18,04,29,11.90
2005,08,18,04,30,11.90
2005,08,18,04,31,12.00
2005,08,18,04,32,12.00
2005,08,18,04,33,12.00
2005,08,18,04,34,12.00
2005,08,18,04,35,12.00
2005,08,18,04,36,12.00
2005,08,18,04,37,12.00
2005,08,18,04,38,12.00
2005,08,18,04,39,12.00
2005,08,18,04,40,12.00
2005,08,18,04,41,12.10
2005,08,18,04,42,12.10
2005,08,18,04,43,12.10
2005,08,18,04,44,12.10
2005,08,18,04,45,12.10
2005,08,18,04,46,12.10
2005,08,18,04,47,12.20
2005,08,18,04,48,12.20
2005,08,18,04,49,12.20
2005,08,18,04,50,12.20
2005,08,18,04,51,12.20
2005,08,18,04,52,12.30
2005,08,18,04,53,12.30
2005,08,18,04,54,12.40
2005,08,18,04,55,12.40
2005,08,18,04,56,12.40
2005,08,18,04,57,12.50
2005,08,18,04,58,12.60
2005,08,18,04,59,12.60
2005,08,18,05,00,12.60
2005,08,18,05,01,12.50
2005,08,18,05,02,12.50
2005,08,18,05,03,12.50
2005,08,18,05,04,12.60
2005,08,18,05,05,12.60
2005,08,18,05,06,12.60
2005,08,18,05,07,12.60
2005,08,18,05,08,12.60
2005,08,18,05,09,12.70
2005,08,18,05,10,12.70
2005,08,18,05,11,12.80
2005,08,18,05,12,12.80
2005,08,18,05,13,12.80
2005,08,18,05,14,12.80
2005,08,18,05,15,12.80
2005,08,18,05,16,12.80
2005,08,18,05,17,12.90
2005,08,18,05,18,12.90
2005,08,18,05,19,12.90
2005,08,18,05,20,12.90
2005,08,18,05,21,13.00
2005,08,18,05,22,13.00
2005,08,18,05,23,13.00
2005,08,18,05,24,13.00
2005,08,18,05,25,13.10
2005,08,18,05,26,13.10
2005,08,18,05,27,13.10
2005,08,18,05,28,13.20
2005,08,18,05,29,13.20
2005,08,18,05,30,13.20
2005,08,18,05,31,13.30
2005,08,18,05,32,13.30
2005,08,18,05,33,13.30
2005,08,18,05,34,13.40
2005,08,18,05,35,13.40
2005,08,18,05,36,13.50
2005,08,18,05,37,13.50
2005,08,18,05,38,13.50
2005,08,18,05,39,13.50
2005,08,18,05,40,13.60
2005,08,18,05,41,13.60
2005,08,18,05,42,13.60
2005,08,18,05,43,13.60
2005,08,18,05,44,13.60
2005,08,18,05,45,13.60
2005,08,18,05,46,13.60
2005,08,18,05,47,13.70
2005,08,18,05,48,13.70
2005,08,18,05,49,13.70
2005,08,18,05,50,13.70
2005,08,18,05,51,13.70
2005,08,18,05,52,13.70
2005,08,18,05,53,13.70
2005,08,18,05,54,13.70
2005,08,18,05,55,13.70
2005,08,18,05,56,13.70
2005,08,18,05,57,13.70
2005,08,18,05,58,13.70
2005,08,18,05,59,13.80
2005,08,18,06,00,13.70
2005,08,18,06,01,13.70
2005,08,18,06,02,13.70
2005,08,18,06,03,13.70
2005,08,18,06,04,13.70
2005,08,18,06,05,13.80
2005,08,18,06,06,13.70
2005,08,18,06,07,13.70
2005,08,18,06,08,13.70
2005,08,18,06,09,13.70
2005,08,18,06,10,13.70
2005,08,18,06,11,13.70
2005,08,18,06,12,13.70
2005,08,18,06,13,13.70
2005,08,18,06,14,13.70
2005,08,18,06,15,13.70
2005,08,18,06,16,13.70
2005,08,18,06,17,13.70
2005,08,18,06,18,13.70
2005,08,18,06,19,13.70
2005,08,18,06,20,13.70
2005,08,18,06,21,13.70
2005,08,18,06,22,13.80
2005,08,18,06,23,13.80
2005,08,18,06,24,13.80
2005,08,18,06,25,13.80
2005,08,18,06,26,13.80
2005,08,18,06,27,13.80
2005,08,18,06,28,13.80
2005,08,18,06,29,13.80
2005,08,18,06,30,13.80
2005,08,18,06,31,13.80
2005,08,18,06,32,13.70
2005,08,18,06,33,13.70
2005,08,18,06,34,13.80
2005,08,18,06,35,13.80
2005,08,18,06,36,13.80
2005,08,18,06,37,13.80
2005,08,18,06,38,13.80
2005,08,18,06,39,13.80
2005,08,18,06,40,13.90
2005,08,18,06,41,13.90
2005,08,18,06,42,13.90
2005,08,18,06,43,13.90
2005,08,18,06,44,14.00
2005,08,18,06,45,14.00
2005,08,18,06,46,14.10
2005,08,18,06,47,14.10
2005,08,18,06,48,14.10
2005,08,18,06,49,14.10
2005,08,18,06,50,14.10
2005,08,18,06,51,14.10
2005,08,18,06,52,14.20
2005,08,18,06,53,14.20
2005,08,18,06,54,14.20
2005,08,18,06,55,14.20
2005,08,18,06,56,14.20
2005,08,18,06,57,14.20
2005,08,18,06,58,14.30
2005,08,18,06,59,14.30
2005,08,18,07,00,14.30
2005,08,18,07,01,14.30
2005,08,18,07,02,14.30
2005,08,18,07,03,14.30
2005,08,18,07,04,14.40
2005,08,18,07,05,14.40
2005,08,18,07,06,14.40
2005,08,18,07,07,14.40
2005,08,18,07,08,14.40
2005,08,18,07,09,14.50
2005,08,18,07,10,14.60
2005,08,18,07,11,14.60
2005,08,18,07,12,14.60
2005,08,18,07,13,14.60
2005,08,18,07,14,14.70
2005,08,18,07,15,14.70
2005,08,18,07,16,14.80
2005,08,18,07,17,14.90
2005,08,18,07,18,15.00
2005,08,18,07,19,15.00
2005,08,18,07,20,15.10
2005,08,18,07,21,15.20
2005,08,18,07,22,15.30
2005,08,18,07,23,15.30
2005,08,18,07,24,15.30
2005,08,18,07,25,15.30
2005,08,18,07,26,15.30
2005,08,18,07,27,15.30
2005,08,18,07,28,15.40
2005,08,18,07,29,15.30
2005,08,18,07,30,15.30
2005,08,18,07,31,15.30
2005,08,18,07,32,15.20
2005,08,18,07,33,15.20
2005,08,18,07,34,15.10
2005,08,18,07,35,15.10
2005,08,18,07,36,15.00
2005,08,18,07,37,14.90
2005,08,18,07,38,14.80
2005,08,18,07,39,14.80
2005,08,18,07,40,14.70
2005,08,18,07,41,14.70
2005,08,18,07,42,14.60
2005,08,18,07,43,14.60
2005,08,18,07,44,14.50
2005,08,18,07,45,14.40
2005,08,18,07,46,14.30
2005,08,18,07,47,14.20
2005,08,18,07,48,14.20
2005,08,18,07,49,14.20
2005,08,18,07,50,14.20
2005,08,18,07,51,14.20
2005,08,18,07,52,14.20
2005,08,18,07,53,14.20
2005,08,18,07,54,14.20
2005,08,18,07,55,14.20
2005,08,18,07,56,14.20
2005,08,18,07,57,14.30
2005,08,18,07,58,14.30
2005,08,18,07,59,14.40
2005,08,18,08,00,14.50
2005,08,18,08,01,14.60
2005,08,18,08,02,14.70
2005,08,18,08,03,14.80
2005,08,18,08,04,14.80
2005,08,18,08,05,15.00
2005,08,18,08,06,15.10
2005,08,18,08,07,15.20
2005,08,18,08,08,15.20
2005,08,18,08,09,15.30
2005,08,18,08,10,15.50
2005,08,18,08,11,15.60
2005,08,18,08,12,15.80
2005,08,18,08,13,15.90
2005,08,18,08,14,15.90
2005,08,18,08,15,16.10
2005,08,18,08,16,16.20
2005,08,18,08,17,16.30
2005,08,18,08,18,16.50
2005,08,18,08,19,16.70
2005,08,18,08,20,16.80
2005,08,18,08,21,16.90
2005,08,18,08,22,17.00
2005,08,18,08,23,17.20
2005,08,18,08,24,17.30
2005,08,18,08,25,17.30
2005,08,18,08,26,17.40
2005,08,18,08,27,17.40
2005,08,18,08,28,17.40
2005,08,18,08,29,17.30
2005,08,18,08,30,17.40
2005,08,18,08,31,17.40
2005,08,18,08,32,17.40
2005,08,18,08,33,17.30
2005,08,18,08,34,17.30
2005,08,18,08,35,17.30
2005,08,18,08,36,17.30
2005,08,18,08,37,17.30
2005,08,18,08,38,17.30
2005,08,18,08,39,17.30
2005,08,18,08,40,17.30
2005,08,18,08,41,17.30
2005,08,18,08,42,17.30
2005,08,18,08,43,17.30
2005,08,18,08,44,17.30
2005,08,18,08,45,17.30
2005,08,18,08,46,17.30
2005,08,18,08,47,17.30
2005,08,18,08,48,17.30
2005,08,18,08,49,17.30
2005,08,18,08,50,17.30
2005,08,18,08,51,17.30
2005,08,18,08,52,17.30
2005,08,18,08,53,17.30
2005,08,18,08,54,17.30
2005,08,18,08,55,17.30
2005,08,18,08,56,17.30
2005,08,18,08,57,17.30
2005,08,18,08,58,17.40
2005,08,18,08,59,17.50
2005,08,18,09,00,17.60
2005,08,18,09,01,17.60
2005,08,18,09,02,17.70
2005,08,18,09,03,17.80
2005,08,18,09,04,17.90
2005,08,18,09,05,18.10
2005,08,18,09,06,18.10
2005,08,18,09,07,18.00
2005,08,18,09,08,17.90
2005,08,18,09,09,17.90
2005,08,18,09,10,17.90
2005,08,18,09,11,18.00
2005,08,18,09,12,18.10
2005,08,18,09,13,18.20
2005,08,18,09,14,18.10
2005,08,18,09,15,18.10
2005,08,18,09,16,18.10
2005,08,18,09,17,18.10
2005,08,18,09,18,18.10
2005,08,18,09,19,18.10
2005,08,18,09,20,18.10
2005,08,18,09,21,18.10
2005,08,18,09,22,18.20
2005,08,18,09,23,18.20
2005,08,18,09,24,18.20
2005,08,18,09,25,18.40
2005,08,18,09,26,18.40
2005,08,18,09,27,18.50
2005,08,18,09,28,18.50
2005,08,18,09,29,18.40
2005,08,18,09,30,18.30
2005,08,18,09,31,18.30
2005,08,18,09,32,18.40
2005,08,18,09,33,18.40
2005,08,18,09,34,18.40
2005,08,18,09,35,18.30
2005,08,18,09,36,18.30
2005,08,18,09,37,18.30
2005,08,18,09,38,18.40
2005,08,18,09,39,18.40
2005,08,18,09,40,18.40
2005,08,18,09,41,18.50
2005,08,18,09,42,18.50
2005,08,18,09,43,18.60
2005,08,18,09,44,18.60
2005,08,18,09,45,18.60
2005,08,18,09,46,18.70
2005,08,18,09,47,18.70
2005,08,18,09,48,18.70
2005,08,18,09,49,18.80
2005,08,18,09,50,18.90
2005,08,18,09,51,19.00
2005,08,18,09,52,19.10
2005,08,18,09,53,19.20
2005,08,18,09,54,19.20
2005,08,18,09,55,19.20
2005,08,18,09,56,19.20
2005,08,18,09,57,19.20
2005,08,18,09,58,19.20
2005,08,18,09,59,19.20
2005,08,18,10,00,19.40
2005,08,18,10,01,19.40
2005,08,18,10,02,19.50
2005,08,18,10,03,19.50
2005,08,18,10,04,19.50
2005,08,18,10,05,19.50
2005,08,18,10,06,19.60
2005,08,18,10,07,19.60
2005,08,18,10,08,19.50
2005,08,18,10,09,19.40
2005,08,18,10,10,19.30
2005,08,18,10,11,19.30
2005,08,18,10,12,19.30
2005,08,18,10,13,19.30
2005,08,18,10,14,19.30
2005,08,18,10,15,19.30
2005,08,18,10,16,19.30
2005,08,18,10,17,19.40
2005,08,18,10,18,19.40
2005,08,18,10,19,19.50
2005,08,18,10,20,19.50
2005,08,18,10,21,19.50
2005,08,18,10,22,19.40
2005,08,18,10,23,19.40
2005,08,18,10,24,19.40
2005,08,18,10,25,19.40
2005,08,18,10,26,19.50
2005,08,18,10,27,19.50
2005,08,18,10,28,19.40
2005,08,18,10,29,19.40
2005,08,18,10,30,19.40
2005,08,18,10,31,19.30
2005,08,18,10,32,19.30
2005,08,18,10,33,19.40
2005,08,18,10,34,19.50
2005,08,18,10,35,19.50
2005,08,18,10,36,19.60
2005,08,18,10,37,19.60
2005,08,18,10,38,19.50
2005,08,18,10,39,19.60
2005,08,18,10,40,19.60
2005,08,18,10,41,19.80
2005,08,18,10,42,19.90
2005,08,18,10,43,19.90
2005,08,18,10,44,19.90
2005,08,18,10,45,19.90
2005,08,18,10,46,19.80
2005,08,18,10,47,19.80
2005,08,18,10,48,19.70
2005,08,18,10,49,19.70
2005,08,18,10,50,19.60
2005,08,18,10,51,19.70
2005,08,18,10,52,19.70
2005,08,18,10,53,19.70
2005,08,18,10,54,19.70
2005,08,18,10,55,19.80
2005,08,18,10,56,19.90
2005,08,18,10,57,20.10
2005,08,18,10,58,20.30
2005,08,18,10,59,20.50
2005,08,18,11,00,20.50
2005,08,18,11,01,20.60
2005,08,18,11,02,20.60
2005,08,18,11,03,20.80
2005,08,18,11,04,20.90
2005,08,18,11,05,21.00
2005,08,18,11,06,21.10
2005,08,18,11,07,21.00
2005,08,18,11,08,20.90
2005,08,18,11,09,20.90
2005,08,18,11,10,20.70
2005,08,18,11,11,20.70
2005,08,18,11,12,20.70
2005,08,18,11,13,20.80
2005,08,18,11,14,20.80
2005,08,18,11,15,20.90
2005,08,18,11,16,20.80
2005,08,18,11,17,20.80
2005,08,18,11,18,20.80
2005,08,18,11,19,20.70
2005,08,18,11,20,20.70
2005,08,18,11,21,20.80
2005,08,18,11,22,20.90
2005,08,18,11,23,20.80
2005,08,18,11,24,20.80
2005,08,18,11,25,20.70
2005,08,18,11,26,20.70
2005,08,18,11,27,20.70
2005,08,18,11,28,20.70
2005,08,18,11,29,20.80
2005,08,18,11,30,20.90
2005,08,18,11,31,21.00
2005,08,18,11,32,21.10
2005,08,18,11,33,21.20
2005,08,18,11,34,21.20
2005,08,18,11,35,21.20
2005,08,18,11,36,21.10
2005,08,18,11,37,20.70
2005,08,18,11,38,20.70
2005,08,18,11,39,20.80
2005,08,18,11,40,21.00
2005,08,18,11,41,21.00
2005,08,18,11,42,20.90
2005,08,18,11,43,20.90
2005,08,18,11,44,20.80
2005,08,18,11,45,20.90
2005,08,18,11,46,20.90
2005,08,18,11,47,21.00
2005,08,18,11,48,21.00
2005,08,18,11,49,21.00
2005,08,18,11,50,21.00
2005,08,18,11,51,21.10
2005,08,18,11,52,21.10
2005,08,18,11,53,21.00
2005,08,18,11,54,21.10
2005,08,18,11,55,21.10
2005,08,18,11,56,21.20
2005,08,18,11,57,21.20
2005,08,18,11,58,21.20
2005,08,18,11,59,21.20
2005,08,18,12,00,21.30
2005,08,18,12,01,21.30
2005,08,18,12,02,21.30
2005,08,18,12,03,21.30
2005,08,18,12,04,21.30
2005,08,18,12,05,21.30
2005,08,18,12,06,21.30
2005,08,18,12,07,21.30
2005,08,18,12,08,21.30
2005,08,18,12,09,21.30
2005,08,18,12,10,21.30
2005,08,18,12,11,21.20
2005,08,18,12,12,21.20
2005,08,18,12,13,21.30
2005,08,18,12,14,21.30
2005,08,18,12,15,21.30
2005,08,18,12,16,21.30
2005,08,18,12,17,21.40
2005,08,18,12,18,21.50
2005,08,18,12,19,21.50
2005,08,18,12,20,21.40
2005,08,18,12,21,21.40
2005,08,18,12,22,21.60
2005,08,18,12,23,21.70
2005,08,18,12,24,21.70
2005,08,18,12,25,21.60
2005,08,18,12,26,21.40
2005,08,18,12,27,21.30
2005,08,18,12,28,21.30
2005,08,18,12,29,21.30
2005,08,18,12,30,21.30
2005,08,18,12,31,21.50
2005,08,18,12,32,21.70
2005,08,18,12,33,21.80
2005,08,18,12,34,22.00
2005,08,18,12,35,22.20
2005,08,18,12,36,22.20
2005,08,18,12,37,22.20
2005,08,18,12,38,22.10
2005,08,18,12,39,22.20
2005,08,18,12,40,22.10
2005,08,18,12,41,22.00
2005,08,18,12,42,22.00
2005,08,18,12,43,22.10
2005,08,18,12,44,22.20
2005,08,18,12,45,22.20
2005,08,18,12,46,22.10
2005,08,18,12,47,22.20
2005,08,18,12,48,22.20
2005,08,18,12,49,22.20
2005,08,18,12,50,22.20
2005,08,18,12,51,22.20
2005,08,18,12,52,22.10
2005,08,18,12,53,22.00
2005,08,18,12,54,21.80
2005,08,18,12,55,21.80
2005,08,18,12,56,21.80
2005,08,18,12,57,21.80
2005,08,18,12,58,21.90
2005,08,18,12,59,21.90
2005,08,18,13,00,22.00
2005,08,18,13,01,22.20
2005,08,18,13,02,22.30
2005,08,18,13,03,22.30
2005,08,18,13,04,22.30
2005,08,18,13,05,22.20
2005,08,18,13,06,22.10
2005,08,18,13,07,22.20
2005,08,18,13,08,22.20
2005,08,18,13,09,22.20
2005,08,18,13,10,22.20
2005,08,18,13,11,22.20
2005,08,18,13,12,22.20
2005,08,18,13,13,22.20
2005,08,18,13,14,22.30
2005,08,18,13,15,22.20
2005,08,18,13,16,22.10
2005,08,18,13,17,22.00
2005,08,18,13,18,22.00
2005,08,18,13,19,22.00
2005,08,18,13,20,22.00
2005,08,18,13,21,22.00
2005,08,18,13,22,22.00
2005,08,18,13,23,22.20
2005,08,18,13,24,22.20
2005,08,18,13,25,22.10
2005,08,18,13,26,22.10
2005,08,18,13,27,22.10
2005,08,18,13,28,22.20
2005,08,18,13,29,22.20
2005,08,18,13,30,22.30
2005,08,18,13,31,22.30
2005,08,18,13,32,22.40
2005,08,18,13,33,22.30
2005,08,18,13,34,22.40
2005,08,18,13,35,22.40
2005,08,18,13,36,22.60
2005,08,18,13,37,22.80
2005,08,18,13,38,22.90
2005,08,18,13,39,23.00
2005,08,18,13,40,23.00
2005,08,18,13,41,22.90
2005,08,18,13,42,22.90
2005,08,18,13,43,22.70
2005,08,18,13,44,22.60
2005,08,18,13,45,22.60
2005,08,18,13,46,22.60
2005,08,18,13,47,22.50
2005,08,18,13,48,22.40
2005,08,18,13,49,22.40
2005,08,18,13,50,22.30
2005,08,18,13,51,22.10
2005,08,18,13,52,22.00
2005,08,18,13,53,22.20
2005,08,18,13,54,22.20
2005,08,18,13,55,22.00
2005,08,18,13,56,22.00
2005,08,18,13,57,21.90
2005,08,18,13,58,21.80
2005,08,18,13,59,21.80
2005,08,18,14,00,21.90
2005,08,18,14,01,22.00
2005,08,18,14,02,22.20
2005,08,18,14,03,22.30
2005,08,18,14,04,22.40
2005,08,18,14,05,22.40
2005,08,18,14,06,22.60
2005,08,18,14,07,22.70
2005,08,18,14,08,22.60
2005,08,18,14,09,22.60
2005,08,18,14,10,22.70
2005,08,18,14,11,22.60
2005,08,18,14,12,22.70
2005,08,18,14,13,22.60
2005,08,18,14,14,22.60
2005,08,18,14,15,22.50
2005,08,18,14,16,22.30
2005,08,18,14,17,22.30
2005,08,18,14,18,22.30
2005,08,18,14,19,22.10
2005,08,18,14,20,22.10
2005,08,18,14,21,22.20
2005,08,18,14,22,22.10
2005,08,18,14,23,22.30
2005,08,18,14,24,22.30
2005,08,18,14,25,22.30
2005,08,18,14,26,22.30
2005,08,18,14,27,22.30
2005,08,18,14,28,22.40
2005,08,18,14,29,22.50
2005,08,18,14,30,22.50
2005,08,18,14,31,22.60
2005,08,18,14,32,22.50
2005,08,18,14,33,22.20
2005,08,18,14,34,22.10
2005,08,18,14,35,22.00
2005,08,18,14,36,21.90
2005,08,18,14,37,21.80
2005,08,18,14,38,21.80
2005,08,18,14,39,21.90
2005,08,18,14,40,21.90
2005,08,18,14,41,21.90
2005,08,18,14,42,21.80
2005,08,18,14,43,21.90
2005,08,18,14,44,22.10
2005,08,18,14,45,22.20
2005,08,18,14,46,22.30
2005,08,18,14,47,22.30
2005,08,18,14,48,22.30
2005,08,18,14,49,22.50
2005,08,18,14,50,22.70
2005,08,18,14,51,22.90
2005,08,18,14,52,22.90
2005,08,18,14,53,22.70
2005,08,18,14,54,22.50
2005,08,18,14,55,22.40
2005,08,18,14,56,22.30
2005,08,18,14,57,22.20
2005,08,18,14,58,22.30
2005,08,18,14,59,22.40
2005,08,18,15,00,22.60
2005,08,18,15,01,22.70
2005,08,18,15,02,22.70
2005,08,18,15,03,22.80
2005,08,18,15,04,22.80
2005,08,18,15,05,22.90
2005,08,18,15,06,22.90
2005,08,18,15,07,22.90
2005,08,18,15,08,22.90
2005,08,18,15,09,22.70
2005,08,18,15,10,22.60
2005,08,18,15,11,22.40
2005,08,18,15,12,22.20
2005,08,18,15,13,22.20
2005,08,18,15,14,22.20
2005,08,18,15,15,22.20
2005,08,18,15,16,22.10
2005,08,18,15,17,22.20
2005,08,18,15,23,22.20
2005,08,18,15,24,22.30
2005,08,18,15,25,22.30
2005,08,18,15,26,22.30
2005,08,18,15,27,22.30
2005,08,18,15,28,22.50
2005,08,18,15,29,22.50
2005,08,18,15,30,22.50
2005,08,18,15,31,22.50
2005,08,18,15,32,22.60
2005,08,18,15,33,22.60
2005,08,18,15,34,22.70
2005,08,18,15,35,22.70
2005,08,18,15,36,22.50
2005,08,18,15,37,22.30
2005,08,18,15,38,22.20
2005,08,18,15,39,22.20
2005,08,18,15,40,22.10
2005,08,18,15,41,22.00
2005,08,18,15,42,22.10
2005,08,18,15,43,22.10
2005,08,18,15,44,22.20
2005,08,18,15,45,22.20
2005,08,18,15,46,22.30
2005,08,18,15,47,22.60
2005,08,18,15,48,22.80
2005,08,18,15,49,23.10
2005,08,18,15,50,23.30
2005,08,18,15,51,23.40
2005,08,18,15,52,23.40
2005,08,18,15,53,23.50
2005,08,18,15,54,23.40
2005,08,18,15,55,23.30
2005,08,18,15,56,23.30
2005,08,18,15,57,23.30
2005,08,18,15,58,23.30
2005,08,18,15,59,23.40
2005,08,18,16,00,23.50
2005,08,18,16,01,23.40
2005,08,18,16,02,23.30
2005,08,18,16,03,23.30
2005,08,18,16,04,23.20
2005,08,18,16,05,23.20
2005,08,18,16,06,23.00
2005,08,18,16,07,23.00
2005,08,18,16,08,23.20
2005,08,18,16,09,23.30
2005,08,18,16,10,23.30
2005,08,18,16,11,23.30
2005,08,18,16,12,23.30
2005,08,18,16,13,23.30
2005,08,18,16,14,23.30
2005,08,18,16,15,23.30
2005,08,18,16,16,23.30
2005,08,18,16,17,23.30
2005,08,18,16,18,23.30
2005,08,18,16,19,23.20
2005,08,18,16,20,23.20
2005,08,18,16,21,23.20
2005,08,18,16,22,23.40
2005,08,18,16,23,23.40
2005,08,18,16,24,23.40
2005,08,18,16,25,23.50
2005,08,18,16,26,23.40
2005,08,18,16,27,23.30
2005,08,18,16,28,23.20
2005,08,18,16,29,23.00
2005,08,18,16,30,22.90
2005,08,18,16,31,22.90
2005,08,18,16,32,22.90
2005,08,18,16,33,22.80
2005,08,18,16,34,22.80
2005,08,18,16,35,22.70
2005,08,18,16,36,22.80
2005,08,18,16,37,22.70
2005,08,18,16,38,22.70
2005,08,18,16,39,22.70
2005,08,18,16,40,22.90
2005,08,18,16,41,23.10
2005,08,18,16,42,23.50
2005,08,18,16,43,23.80
2005,08,18,16,44,24.20
2005,08,18,16,45,24.60
2005,08,18,16,46,24.90
2005,08,18,16,47,25.10
2005,08,18,16,48,25.30
2005,08,18,16,49,25.50
2005,08,18,16,50,25.60
2005,08,18,16,51,25.90
2005,08,18,16,52,26.10
2005,08,18,16,53,26.10
2005,08,18,16,54,26.20
2005,08,18,16,55,26.20
2005,08,18,16,56,26.30
2005,08,18,16,57,26.20
2005,08,18,16,58,26.20
2005,08,18,16,59,26.30
2005,08,18,17,00,26.30
2005,08,18,17,01,26.40
2005,08,18,17,02,26.20
2005,08,18,17,03,25.90
2005,08,18,17,04,25.90
2005,08,18,17,05,25.90
2005,08,18,17,06,25.90
2005,08,18,17,07,25.90
2005,08,18,17,08,25.90
2005,08,18,17,09,25.90
2005,08,18,17,10,26.10
2005,08,18,17,11,26.10
2005,08,18,17,12,26.10
2005,08,18,17,13,26.20
2005,08,18,17,14,26.30
2005,08,18,17,15,26.30
2005,08,18,17,16,26.30
2005,08,18,17,17,26.40
2005,08,18,17,18,26.30
2005,08,18,17,19,26.10
2005,08,18,17,20,25.90
2005,08,18,17,21,25.60
2005,08,18,17,22,25.60
2005,08,18,17,23,25.60
2005,08,18,17,24,25.40
2005,08,18,17,25,25.10
2005,08,18,17,26,24.90
2005,08,18,17,27,24.90
2005,08,18,17,28,24.90
2005,08,18,17,29,25.00
2005,08,18,17,30,25.10
2005,08,18,17,31,25.20
2005,08,18,17,32,25.30
2005,08,18,17,33,25.40
2005,08,18,17,34,25.40
2005,08,18,17,35,25.40
2005,08,18,17,36,25.50
2005,08,18,17,37,25.60
2005,08,18,17,38,25.60
2005,08,18,17,39,25.60
2005,08,18,17,40,25.60
2005,08,18,17,41,25.70
2005,08,18,17,42,25.60
2005,08,18,17,43,25.70
2005,08,18,17,44,25.60
2005,08,18,17,45,25.50
2005,08,18,17,46,25.30
2005,08,18,17,47,25.20
2005,08,18,17,48,25.00
2005,08,18,17,49,24.90
2005,08,18,17,50,24.90
2005,08,18,17,51,24.90
2005,08,18,17,52,24.90
2005,08,18,17,53,24.90
2005,08,18,17,54,24.90
2005,08,18,17,55,24.80
2005,08,18,17,56,24.60
2005,08,18,17,57,24.60
2005,08,18,17,58,24.50
2005,08,18,17,59,24.50
2005,08,18,18,00,24.50
2005,08,18,18,01,24.50
2005,08,18,18,02,24.60
2005,08,18,18,03,24.60
2005,08,18,18,04,24.70
2005,08,18,18,05,24.80
2005,08,18,18,06,24.90
2005,08,18,18,07,25.10
2005,08,18,18,08,25.20
2005,08,18,18,09,25.20
2005,08,18,18,10,25.30
2005,08,18,18,11,25.30
2005,08,18,18,12,25.30
2005,08,18,18,13,25.30
2005,08,18,18,14,25.30
2005,08,18,18,15,25.10
2005,08,18,18,16,25.00
2005,08,18,18,17,24.90
2005,08,18,18,18,24.80
2005,08,18,18,19,24.70
2005,08,18,18,20,24.60
2005,08,18,18,21,24.50
2005,08,18,18,22,24.50
2005,08,18,18,23,24.40
2005,08,18,18,24,24.40
2005,08,18,18,25,24.40
2005,08,18,18,26,24.50
2005,08,18,18,27,24.60
2005,08,18,18,28,24.60
2005,08,18,18,29,24.50
2005,08,18,18,30,24.50
2005,08,18,18,31,24.60
2005,08,18,18,32,24.50
2005,08,18,18,33,24.60